Location: Archemont
(49.1579°N, 1.7598°E)
Time: 10:28:17
(UTC+00:00)

deb Explorer IX - Pass Details

Date: 17 April 2024
Orbit: 513 x 891 km, 38.7° (Epoch: 23 May)

Event Time Altitude Azimuth Distance (km) Brightness Sun altitude
Rises 16:52:11 0° 263° (W) 3,493 ? 18.0°
Reaches altitude 10° 16:55:48 10° 244° (WSW) 2,510 ? 17.4°
Maximum altitude 16:59:19 16° 208° (SSW) 2,046 ? 16.8°
Drops below altitude 10° 17:02:42 10° 171° (S) 2,381 ? 16.3°
Sets 17:06:00 0° 150° (SSE) 3,229 ? 15.7°
